This is the latest recevied weather packets stored in our database for station/object CE3SUR-16. If no packets are shown the sender has not sent any weather packets the latest 10 day(s).
| Time | Temp. | Humidity | Pressure | Rain* | Wind** | Luminosity | Snow |
|---|---|---|---|---|---|---|---|
| 1777930730 | 23.33° C | 48% | 953.6 hPa | - | - | - | - |
| 1777928962 | 23.89° C | 46% | 953.9 hPa | - | - | - | - |
| 1777928929 | 23.89° C | 46% | 953.9 hPa | - | - | - | - |
| 1777927129 | 24.44° C | 47% | 953.9 hPa | - | - | - | - |
| 1777925329 | 25° C | 46% | 953.8 hPa | - | - | - | - |
| 1777923529 | 25.56° C | 44% | 953.9 hPa | - | - | - | - |
| 1777921729 | 25° C | 44% | 954 hPa | - | - | - | - |
| 1777919928 | 24.44° C | 45% | 954.4 hPa | - | - | - | - |
| 1777918128 | 23.89° C | 45% | 954.6 hPa | - | - | - | - |
| 1777916327 | 24.44° C | 44% | 955.1 hPa | - | - | - | - |
| 1777914530 | 23.89° C | 43% | 955.4 hPa | - | - | - | - |
| 1777912729 | 24.44° C | 45% | 955.7 hPa | - | - | - | - |
| 1777910929 | 23.89° C | 44% | 955.8 hPa | - | - | - | - |
| 1777909191 | 23.33° C | 46% | 956.1 hPa | - | - | - | - |
| 1777909128 | 23.33° C | 46% | 956.1 hPa | - | - | - | - |
| 1777907861 | 22.22° C | 46% | 956.2 hPa | - | - | - | - |
| 1777907328 | 22.22° C | 46% | 956.2 hPa | - | - | - | - |
| 1777905528 | 20.56° C | 51% | 956.3 hPa | - | - | - | - |
| 1777903791 | 20° C | 66% | 956.3 hPa | - | - | - | - |
| 1777903728 | 20° C | 66% | 956.3 hPa | - | - | - | - |
| 1777902341 | 17.22° C | 56% | 956.3 hPa | - | - | - | - |
| 1777901927 | 17.22° C | 56% | 956.3 hPa | - | - | - | - |
| 1777900455 | 16.67° C | 58% | 956.4 hPa | - | - | - | - |
| 1777900127 | 16.67° C | 58% | 956.4 hPa | - | - | - | - |
| 1777898454 | 16.11° C | 61% | 956.2 hPa | - | - | - | - |
* Rain since midnight (hover to see other rain measurements)
** Current wind speed in m/s (hover to see current wind gust speed)